,,,PA_Meas_PMT16A,,PR_Meas_QMR101_102,,RH_Meas_QMH101,,SR_Meas_QMS101,,TA_Meas_QMH101,,GenWind,,GenWind,
date,time,status,PA,status,PR,status,RH,status,SR,status,TA,status,DirAvg,status,SpdAvg,
2011-06-09, 00:00:04,VALID,1000.89,VALID,0,VALID,93.7451,VALID,0,VALID,23.5841,VALID,360,VALID,0,
2011-06-09, 00:01:04,VALID,1000.93,VALID,0,VALID,93.7375,VALID,0,VALID,23.5841,VALID,360,VALID,0,
2011-06-09, 00:02:04,VALID,1000.96,VALID,0,VALID,93.7451,VALID,0,VALID,23.5646,VALID,360,VALID,0,
2011-06-09, 00:03:04,VALID,1000.95,VALID,0,VALID,93.7375,VALID,0,VALID,23.5841,VALID,360,VALID,0,
2011-06-09, 00:04:04,VALID,1000.95,VALID,0,VALID,93.7223,VALID,0,VALID,23.6036,VALID,190,VALID,0,
2011-06-09, 00:05:04,VALID,1000.96,VALID,0,VALID,93.7299,VALID,0,VALID,23.6427,VALID,197,VALID,0,
2011-06-09, 00:06:04,VALID,1000.96,VALID,0,VALID,93.7375,VALID,0,VALID,23.6622,VALID,197,VALID,0,
2011-06-09, 00:07:04,VALID,1000.92,VALID,0,VALID,93.7146,VALID,0,VALID,23.6817,VALID,197,VALID,0,
2011-06-09, 00:08:04,VALID,1000.91,VALID,0,VALID,93.707,VALID,0,VALID,23.7012,VALID,197,VALID,0,
2011-06-09, 00:09:04,VALID,1000.88,VALID,0,VALID,93.6994,VALID,0,VALID,23.7207,VALID,197,VALID,0,
2011-06-09, 00:10:04,VALID,1000.9,VALID,0,VALID,93.707,VALID,0,VALID,23.7207,VALID,197,VALID,0,
2011-06-09, 00:11:04,VALID,1000.92,VALID,0,VALID,93.6917,VALID,0,VALID,23.7793,VALID,198,VALID,0.925781,
2011-06-09, 00:12:04,VALID,1000.9,VALID,0,VALID,93.6917,VALID,0,VALID,23.7988,VALID,213,VALID,1.06602,
2011-06-09, 00:13:04,VALID,1000.87,VALID,0,VALID,93.6917,VALID,0,VALID,23.8573,VALID,194,VALID,1.37383,
2011-06-09, 00:14:04,VALID,1000.87,VALID,0,VALID,93.6841,VALID,0,VALID,23.8768,VALID,196,VALID,0.825,
2011-06-09, 00:15:04,VALID,1000.86,VALID,0,VALID,93.6536,VALID,0,VALID,23.9159,VALID,196,VALID,0.737109,
2011-06-09, 00:16:04,VALID,1000.83,VALID,0,VALID,93.6765,VALID,0,VALID,23.9159,VALID,196,VALID,0.521875,
2011-06-09, 00:17:04,VALID,1000.82,VALID,0,VALID,93.646,VALID,0,VALID,23.9159,VALID,196,VALID,0.492578,
2011-06-09, 00:18:04,VALID,1000.76,VALID,0,VALID,93.6307,VALID,0,VALID,23.9354,VALID,196,VALID,0.456641,
2011-06-09, 00:19:04,VALID,1000.77,VALID,0,VALID,93.6231,VALID,0,VALID,23.9159,VALID,180,VALID,0.625781,
2011-06-09, 00:20:04,VALID,1000.75,VALID,0,VALID,93.5773,VALID,0,VALID,23.9159,VALID,155,VALID,0.710156,
2011-06-09, 00:21:04,VALID,1000.7,VALID,0,VALID,93.5849,VALID,0,VALID,23.9159,VALID,155,VALID,0.708594,
2011-06-09, 00:22:04,VALID,1000.68,VALID,0,VALID,93.562,VALID,0,VALID,23.8963,VALID,155,VALID,0.708984,
2011-06-09, 00:23:04,VALID,1000.65,VALID,0,VALID,93.5315,VALID,0,VALID,23.8768,VALID,155,VALID,0.480469,
2011-06-09, 00:24:04,VALID,1000.65,VALID,0,VALID,93.501,VALID,0,VALID,23.8768,VALID,155,VALID,0.4375,
2011-06-09, 00:25:04,VALID,1000.64,VALID,0,VALID,93.4857,VALID,0,VALID,23.8555,VALID,155,VALID,0.402734,
2011-06-09, 00:26:04,VALID,1000.6,VALID,0,VALID,93.4781,VALID,0,VALID,23.8573,VALID,155,VALID,0.465234,
2011-06-09, 00:27:04,VALID,1000.59,VALID,0,VALID,93.4705,VALID,0,VALID,23.8378,VALID,155,VALID,0.488281,
2011-06-09, 00:28:04,VALID,1000.58,VALID,0,VALID,93.44,VALID,0,VALID,23.8378,VALID,155,VALID,0.424609,
2011-06-09, 00:29:04,VALID,1000.54,VALID,0,VALID,93.4323,VALID,0,VALID,23.8183,VALID,155,VALID,0.509766,
2011-06-09, 00:30:04,VALID,1000.58,VALID,0,VALID,93.4171,VALID,0,VALID,23.7775,VALID,155,VALID,0.511719,
2011-06-09, 00:31:04,VALID,1000.59,VALID,0,VALID,93.4018,VALID,0,VALID,23.8183,VALID,155,VALID,0.591406,
2011-06-09, 00:32:04,VALID,1000.58,VALID,0,VALID,93.3866,VALID,0,VALID,23.7988,VALID,155,VALID,0.644141,
2011-06-09, 00:33:04,VALID,1000.59,VALID,0,VALID,93.3866,VALID,0,VALID,23.7988,VALID,155,VALID,0.5,
2011-06-09, 00:34:04,VALID,1000.56,VALID,0,VALID,93.3942,VALID,0,VALID,23.7988,VALID,155,VALID,0.484766,
2011-06-09, 00:35:04,VALID,1000.53,VALID,0,VALID,93.3789,VALID,0,VALID,23.7988,VALID,155,VALID,0.478516,
2011-06-09, 00:36:04,VALID,1000.5,VALID,0,VALID,93.356,VALID,0,VALID,23.7988,VALID,155,VALID,0.354688,
2011-06-09, 00:37:04,VALID,1000.47,VALID,0,VALID,93.356,VALID,0,VALID,23.7988,VALID,155,VALID,0.336719,
2011-06-09, 00:38:04,VALID,1000.46,VALID,0,VALID,93.3484,VALID,0,VALID,23.7579,VALID,155,VALID,0.363281,
2011-06-09, 00:39:04,VALID,1000.44,VALID,0,VALID,93.3484,VALID,0,VALID,23.7579,VALID,155,VALID,0,
2011-06-09, 00:40:04,VALID,1000.42,VALID,0,VALID,93.3179,VALID,0,VALID,23.7597,VALID,155,VALID,0,
2011-06-09, 00:41:04,VALID,1000.41,VALID,0,VALID,93.3103,VALID,0,VALID,23.7402,VALID,155,VALID,0.583984,
2011-06-09, 00:42:04,VALID,1000.42,VALID,0,VALID,93.3103,VALID,0,VALID,23.7402,VALID,155,VALID,0.658594,
2011-06-09, 00:43:04,VALID,1000.43,VALID,0,VALID,93.3103,VALID,0,VALID,23.7012,VALID,155,VALID,0.8875,
2011-06-09, 00:44:04,VALID,1000.43,VALID,0,VALID,93.295,VALID,0,VALID,23.7012,VALID,155,VALID,0.902344,
2011-06-09, 00:45:04,VALID,1000.41,VALID,0,VALID,93.3179,VALID,0,VALID,23.6604,VALID,155,VALID,0.837109,
2011-06-09, 00:46:04,VALID,1000.39,VALID,0,VALID,93.3179,VALID,0,VALID,23.6622,VALID,340,VALID,0.708203,
2011-06-09, 00:47:04,VALID,1000.39,VALID,0,VALID,93.3331,VALID,0,VALID,23.6427,VALID,341,VALID,0.832812,
2011-06-09, 00:48:04,VALID,1000.39,VALID,0,VALID,93.3255,VALID,0,VALID,23.6232,VALID,354,VALID,0.852344,
2011-06-09, 00:49:04,VALID,1000.38,VALID,0,VALID,93.356,VALID,0,VALID,23.6232,VALID,3,VALID,0.883203,
2011-06-09, 00:50:04,VALID,1000.35,VALID,0,VALID,93.3713,VALID,0,VALID,23.5841,VALID,25,VALID,1.03125,
2011-06-09, 00:51:04,VALID,1000.38,VALID,0,VALID,93.3637,VALID,0,VALID,23.5646,VALID,33,VALID,1.12109,
2011-06-09, 00:52:04,VALID,1000.36,VALID,0,VALID,93.3789,VALID,0,VALID,23.5238,VALID,36,VALID,1.13984,
2011-06-09, 00:53:04,VALID,1000.39,VALID,0,VALID,93.3789,VALID,0,VALID,23.5646,VALID,40,VALID,1.44375,
2011-06-09, 00:54:04,VALID,1000.38,VALID,0,VALID,93.4094,VALID,0,VALID,23.5841,VALID,34,VALID,1.52813,
2011-06-09, 00:55:04,VALID,1000.39,VALID,0,VALID,93.4171,VALID,0,VALID,23.5823,VALID,33,VALID,1.14219,
2011-06-09, 00:56:04,VALID,1000.39,VALID,0,VALID,93.44,VALID,0,VALID,23.6036,VALID,36,VALID,1.47539,
2011-06-09, 00:57:04,VALID,1000.37,VALID,0,VALID,93.4781,VALID,0,VALID,23.5823,VALID,35,VALID,1.49961,
2011-06-09, 00:58:04,VALID,1000.34,VALID,0,VALID,93.4781,VALID,0,VALID,23.5823,VALID,34,VALID,1.54961,
2011-06-09, 00:59:04,VALID,1000.31,VALID,0,VALID,93.4857,VALID,0,VALID,23.6036,VALID,29,VALID,1.50937,
2011-06-09, 01:00:04,VALID,1000.32,VALID,0,VALID,93.501,VALID,0,VALID,23.6036,VALID,38,VALID,1.40937,
2011-06-09, 01:01:04,VALID,1000.29,VALID,0,VALID,93.5163,VALID,0,VALID,23.5823,VALID,37,VALID,1.29492,
2011-06-09, 01:02:04,VALID,1000.29,VALID,0,VALID,93.5239,VALID,0,VALID,23.6232,VALID,45,VALID,1.47305,
2011-06-09, 01:03:04,VALID,1000.26,VALID,0,VALID,93.5239,VALID,0,VALID,23.6232,VALID,42,VALID,1.05078,
2011-06-09, 01:04:04,VALID,1000.26,VALID,0,VALID,93.5468,VALID,0,VALID,23.6232,VALID,41,VALID,1.35859,
2011-06-09, 01:05:04,VALID,1000.25,VALID,0,VALID,93.5391,VALID,0,VALID,23.6427,VALID,39,VALID,0.977734,
2011-06-09, 01:06:04,VALID,1000.25,VALID,0,VALID,93.562,VALID,0,VALID,23.6622,VALID,39,VALID,0.786719,
2011-06-09, 01:07:04,VALID,1000.25,VALID,0,VALID,93.5468,VALID,0,VALID,23.6817,VALID,40,VALID,0.550391,
2011-06-09, 01:08:04,VALID,1000.23,VALID,0,VALID,93.5544,VALID,0,VALID,23.6799,VALID,40,VALID,0.521875,
2011-06-09, 01:09:04,VALID,1000.22,VALID,0,VALID,93.5544,VALID,0,VALID,23.7012,VALID,40,VALID,0,
2011-06-09, 01:10:04,VALID,1000.2,VALID,0,VALID,93.5697,VALID,0.112286,VALID,23.6799,VALID,39,VALID,0,
2011-06-09, 01:11:04,VALID,1000.18,VALID,0,VALID,93.562,VALID,0,VALID,23.6799,VALID,39,VALID,0,
2011-06-09, 01:12:04,VALID,1000.19,VALID,0,VALID,93.5849,VALID,0.112286,VALID,23.6799,VALID,39,VALID,0,
2011-06-09, 01:13:04,VALID,1000.17,VALID,0,VALID,93.5773,VALID,0,VALID,23.6817,VALID,39,VALID,0,
2011-06-09, 01:14:04,VALID,1000.16,VALID,0,VALID,93.5773,VALID,0.112286,VALID,23.6817,VALID,39,VALID,0,
2011-06-09, 01:15:04,VALID,1000.12,VALID,0,VALID,93.5926,VALID,0,VALID,23.6835,VALID,39,VALID,0,
2011-06-09, 01:16:04,VALID,1000.1,VALID,0,VALID,93.5544,VALID,0,VALID,23.6622,VALID,39,VALID,0,
2011-06-09, 01:17:05,VALID,1000.11,VALID,0,VALID,93.5849,VALID,0,VALID,23.6622,VALID,39,VALID,0,
2011-06-09, 01:18:05,VALID,1000.03,VALID,0,VALID,93.5697,VALID,0,VALID,23.6622,VALID,39,VALID,0,
2011-06-09, 01:19:05,VALID,999.993,VALID,0,VALID,93.5773,VALID,0,VALID,23.6427,VALID,39,VALID,0,
2011-06-09, 01:20:05,VALID,999.949,VALID,0,VALID,93.5926,VALID,0,VALID,23.6427,VALID,39,VALID,0,
2011-06-09, 01:21:05,VALID,999.955,VALID,0,VALID,93.5926,VALID,0,VALID,23.6232,VALID,39,VALID,0,
2011-06-09, 01:22:05,VALID,999.934,VALID,0,VALID,93.5926,VALID,0,VALID,23.6232,VALID,39,VALID,0,
2011-06-09, 01:23:05,VALID,999.911,VALID,0,VALID,93.5849,VALID,0,VALID,23.6427,VALID,39,VALID,0,
2011-06-09, 01:24:05,VALID,999.896,VALID,0,VALID,93.5849,VALID,0,VALID,23.6427,VALID,39,VALID,0,
2011-06-09, 01:25:05,VALID,999.881,VALID,0,VALID,93.6154,VALID,0,VALID,23.6835,VALID,90,VALID,0,
2011-06-09, 01:26:05,VALID,999.894,VALID,0,VALID,93.5849,VALID,0,VALID,23.6817,VALID,90,VALID,0,
2011-06-09, 01:27:05,VALID,999.922,VALID,0,VALID,93.5773,VALID,0,VALID,23.6799,VALID,90,VALID,0,
2011-06-09, 01:28:05,VALID,999.924,VALID,0,VALID,93.6002,VALID,0,VALID,23.7012,VALID,90,VALID,0,
2011-06-09, 01:29:05,VALID,999.978,VALID,0,VALID,93.5926,VALID,0,VALID,23.7207,VALID,41,VALID,0.832812,
2011-06-09, 01:30:05,VALID,1000.02,VALID,0,VALID,93.5849,VALID,0,VALID,23.6817,VALID,22,VALID,2.1957,
2011-06-09, 01:31:05,VALID,1000.07,VALID,0,VALID,93.5697,VALID,0,VALID,23.6622,VALID,25,VALID,2.94258,
2011-06-09, 01:32:05,VALID,1000.03,VALID,0,VALID,93.5926,VALID,0,VALID,23.6232,VALID,17,VALID,2.36953,
2011-06-09, 01:33:05,VALID,1000.01,VALID,0,VALID,93.5544,VALID,0,VALID,23.6036,VALID,20,VALID,2.39063,
2011-06-09, 01:34:05,VALID,1000.03,VALID,0,VALID,93.5468,VALID,0,VALID,23.6036,VALID,28,VALID,1.77813,
2011-06-09, 01:35:05,VALID,1000.02,VALID,0,VALID,93.562,VALID,0,VALID,23.6036,VALID,16,VALID,1.96602,
2011-06-09, 01:36:05,VALID,1000.01,VALID,0,VALID,93.5544,VALID,0,VALID,23.6036,VALID,18,VALID,1.19609,
2011-06-09, 01:37:05,VALID,999.958,VALID,0,VALID,93.5239,VALID,0,VALID,23.6036,VALID,26,VALID,0.960938,
2011-06-09, 01:38:05,VALID,999.967,VALID,0,VALID,93.5239,VALID,0,VALID,23.6232,VALID,22,VALID,1.26328,
2011-06-09, 01:39:05,VALID,999.925,VALID,0,VALID,93.5163,VALID,0,VALID,23.6427,VALID,20,VALID,0.962891,
2011-06-09, 01:40:05,VALID,999.937,VALID,0,VALID,93.501,VALID,0,VALID,23.6214,VALID,43,VALID,0.964453,
2011-06-09, 01:41:05,VALID,999.915,VALID,0,VALID,93.4781,VALID,0,VALID,23.6445,VALID,49,VALID,0.994922,
2011-06-09, 01:42:05,VALID,999.937,VALID,0,VALID,93.4705,VALID,0,VALID,23.6232,VALID,52,VALID,1.08477,
2011-06-09, 01:43:05,VALID,999.919,VALID,0,VALID,93.4628,VALID,0,VALID,23.6232,VALID,50,VALID,0.676172,
2011-06-09, 01:44:05,VALID,999.932,VALID,0,VALID,93.4705,VALID,0,VALID,23.6427,VALID,55,VALID,0.894922,
2011-06-09, 01:45:05,VALID,999.953,VALID,0,VALID,93.4476,VALID,0,VALID,23.6427,VALID,36,VALID,1.07227,
2011-06-09, 01:46:05,VALID,999.969,VALID,0,VALID,93.44,VALID,0,VALID,23.7012,VALID,27,VALID,1.30352,
2011-06-09, 01:47:05,VALID,999.978,VALID,0,VALID,93.4323,VALID,0,VALID,23.7207,VALID,37,VALID,0.715234,
2011-06-09, 01:48:05,VALID,999.971,VALID,0,VALID,93.4018,VALID,0,VALID,23.7207,VALID,37,VALID,1.06758,
2011-06-09, 01:49:05,VALID,999.988,VALID,0,VALID,93.3789,VALID,0,VALID,23.7207,VALID,33,VALID,0.747266,
2011-06-09, 01:50:05,VALID,999.994,VALID,0,VALID,93.3866,VALID,0,VALID,23.7207,VALID,33,VALID,0.973828,
2011-06-09, 01:51:05,VALID,999.979,VALID,0,VALID,93.3408,VALID,0,VALID,23.7402,VALID,33,VALID,0.853516,
2011-06-09, 01:52:05,VALID,999.97,VALID,0,VALID,93.3484,VALID,0,VALID,23.7793,VALID,32,VALID,0.739844,
2011-06-09, 01:53:05,VALID,999.986,VALID,0,VALID,93.3255,VALID,0,VALID,23.8183,VALID,26,VALID,0.725781,
2011-06-09, 01:54:05,VALID,999.983,VALID,0,VALID,93.3484,VALID,0,VALID,23.8768,VALID,32,VALID,0.892969,
2011-06-09, 01:55:05,VALID,1000,VALID,0,VALID,93.3255,VALID,0,VALID,23.9159,VALID,33,VALID,0.791406,
2011-06-09, 01:56:05,VALID,1000.02,VALID,0,VALID,93.2874,VALID,0,VALID,23.9549,VALID,36,VALID,1.19219,
2011-06-09, 01:57:05,VALID,999.985,VALID,0,VALID,93.2874,VALID,0.112286,VALID,23.9744,VALID,29,VALID,1.56094,
2011-06-09, 01:58:05,VALID,1000.01,VALID,0,VALID,93.2721,VALID,0,VALID,23.9939,VALID,36,VALID,1.41953,
2011-06-09, 01:59:05,VALID,1000.03,VALID,0,VALID,93.2111,VALID,0,VALID,23.9744,VALID,42,VALID,1.07891,
2011-06-09, 02:00:05,VALID,999.984,VALID,0,VALID,93.1958,VALID,0,VALID,24.0134,VALID,34,VALID,1.73242,
2011-06-09, 02:01:05,VALID,999.996,VALID,0,VALID,93.1653,VALID,0,VALID,24.072,VALID,11,VALID,1.40078,
2011-06-09, 02:02:05,VALID,1000.01,VALID,0,VALID,93.1348,VALID,0,VALID,24.1305,VALID,10,VALID,1.50508,
2011-06-09, 02:03:05,VALID,1000,VALID,0,VALID,93.0585,VALID,0,VALID,24.1677,VALID,10,VALID,1.28359,
2011-06-09, 02:04:05,VALID,999.985,VALID,0,VALID,92.9822,VALID,0,VALID,24.2086,VALID,357,VALID,1.19727,
2011-06-09, 02:05:05,VALID,999.991,VALID,0,VALID,92.883,VALID,0,VALID,24.2671,VALID,359,VALID,1.1168,
2011-06-09, 02:06:05,VALID,999.974,VALID,0,VALID,92.7991,VALID,0,VALID,24.2671,VALID,338,VALID,0.658984,
2011-06-09, 02:07:05,VALID,999.955,VALID,0,VALID,92.6999,VALID,0,VALID,24.2866,VALID,360,VALID,0.636719,
2011-06-09, 02:08:05,VALID,999.948,VALID,0,VALID,92.6083,VALID,0,VALID,24.2866,VALID,360,VALID,0.701563,
2011-06-09, 02:09:05,VALID,999.941,VALID,0,VALID,92.5091,VALID,0,VALID,24.2866,VALID,356,VALID,0.594141,
2011-06-09, 02:10:05,VALID,999.94,VALID,0,VALID,92.3794,VALID,0,VALID,24.3062,VALID,356,VALID,0.730078,
2011-06-09, 02:11:05,VALID,999.96,VALID,0,VALID,92.265,VALID,0,VALID,24.3257,VALID,332,VALID,1.23281,
2011-06-09, 02:12:05,VALID,999.932,VALID,0,VALID,92.1277,VALID,0,VALID,24.3452,VALID,329,VALID,1.44023,
2011-06-09, 02:13:05,VALID,999.977,VALID,0,VALID,92.0056,VALID,0,VALID,24.3842,VALID,326,VALID,1.28164,
2011-06-09, 02:14:05,VALID,999.942,VALID,0,VALID,91.8606,VALID,0,VALID,24.4037,VALID,346,VALID,1.11875,
2011-06-09, 02:15:05,VALID,999.949,VALID,0,VALID,91.7614,VALID,0,VALID,24.4037,VALID,292,VALID,0.630078,
2011-06-09, 02:16:05,VALID,999.933,VALID,0,VALID,91.6928,VALID,0,VALID,24.4233,VALID,266,VALID,1.34922,
2011-06-09, 02:17:05,VALID,999.94,VALID,0,VALID,91.5249,VALID,0,VALID,24.4037,VALID,281,VALID,2.62852,
2011-06-09, 02:18:05,VALID,999.98,VALID,0,VALID,91.3723,VALID,0,VALID,24.3842,VALID,322,VALID,2.53008,
2011-06-09, 02:19:05,VALID,999.946,VALID,0,VALID,91.3113,VALID,0,VALID,24.3647,VALID,295,VALID,1.59961,
2011-06-09, 02:20:05,VALID,999.947,VALID,0,VALID,91.2121,VALID,0,VALID,24.3257,VALID,287,VALID,2.51953,
2011-06-09, 02:21:05,VALID,999.953,VALID,0,VALID,91.1282,VALID,0,VALID,24.2653,VALID,309,VALID,1.04805,
2011-06-09, 02:22:05,VALID,999.963,VALID,0,VALID,91.0977,VALID,0,VALID,24.2671,VALID,340,VALID,2.20898,
2011-06-09, 02:23:05,VALID,999.97,VALID,0,VALID,91.1129,VALID,0,VALID,24.2281,VALID,325,VALID,1.19297,
2011-06-09, 02:24:05,VALID,999.986,VALID,0,VALID,91.1892,VALID,0,VALID,24.2067,VALID,331,VALID,2.34141,
2011-06-09, 02:25:05,VALID,1000.02,VALID,0,VALID,91.2197,VALID,0,VALID,24.1872,VALID,280,VALID,1.66406,
2011-06-09, 02:26:05,VALID,1000.03,VALID,0,VALID,91.2655,VALID,0,VALID,24.1891,VALID,300,VALID,0.625391,
2011-06-09, 02:27:05,VALID,1000.03,VALID,0,VALID,91.3647,VALID,0,VALID,24.1696,VALID,309,VALID,1.26992,
2011-06-09, 02:28:05,VALID,1000.05,VALID,0,VALID,91.4486,VALID,0,VALID,24.1287,VALID,305,VALID,0.755469,
2011-06-09, 02:29:05,VALID,1000.02,VALID,0,VALID,91.5554,VALID,0,VALID,24.1287,VALID,264,VALID,1.48555,
2011-06-09, 02:30:05,VALID,1000.02,VALID,0,VALID,91.6623,VALID,0,VALID,24.1305,VALID,281,VALID,0.2875,
2011-06-09, 02:31:05,VALID,1000.01,VALID,0,VALID,91.7385,VALID,0,VALID,24.1092,VALID,311,VALID,2.26172,
2011-06-09, 02:32:05,VALID,1000.03,VALID,0,VALID,91.8301,VALID,0,VALID,24.1305,VALID,314,VALID,1.78945,
2011-06-09, 02:33:05,VALID,1000.02,VALID,0,VALID,91.8911,VALID,0,VALID,24.111,VALID,317,VALID,1.83281,
2011-06-09, 02:34:05,VALID,1000.02,VALID,0,VALID,91.9598,VALID,0,VALID,24.111,VALID,308,VALID,1.31211,
2011-06-09, 02:35:05,VALID,999.998,VALID,0,VALID,92.0514,VALID,0,VALID,24.111,VALID,322,VALID,1.61055,
2011-06-09, 02:36:05,VALID,1000.02,VALID,0,VALID,92.0895,VALID,0,VALID,24.111,VALID,301,VALID,1.80117,
2011-06-09, 02:37:05,VALID,1000.03,VALID,0,VALID,92.1658,VALID,0,VALID,24.0701,VALID,290,VALID,3.25781,
2011-06-09, 02:38:05,VALID,1000.03,VALID,1,VALID,92.2116,VALID,0,VALID,24.072,VALID,266,VALID,1.89531,
2011-06-09, 02:39:05,VALID,999.97,VALID,0.5,VALID,92.3108,VALID,0,VALID,23.9726,VALID,281,VALID,2.63945,
2011-06-09, 02:40:05,VALID,999.968,VALID,0.5,VALID,92.4481,VALID,0,VALID,23.9549,VALID,272,VALID,1.51133,
2011-06-09, 02:41:05,VALID,999.932,VALID,0.5,VALID,92.5931,VALID,0,VALID,23.9159,VALID,287,VALID,1.27617,
2011-06-09, 02:42:05,VALID,999.958,VALID,0.5,VALID,92.7151,VALID,0,VALID,23.875,VALID,307,VALID,1.94687,
2011-06-09, 02:43:05,VALID,999.953,VALID,0.5,VALID,92.8296,VALID,0,VALID,23.836,VALID,264,VALID,0.991016,
2011-06-09, 02:44:05,VALID,999.922,VALID,0,VALID,92.9059,VALID,0,VALID,23.7988,VALID,348,VALID,2.27617,
2011-06-09, 02:45:05,VALID,999.922,VALID,0.5,VALID,92.9822,VALID,0,VALID,23.7597,VALID,326,VALID,1.89141,
2011-06-09, 02:46:05,VALID,999.952,VALID,0.5,VALID,93.0356,VALID,0,VALID,23.6622,VALID,292,VALID,3.20391,
2011-06-09, 02:47:05,VALID,999.929,VALID,0.5,VALID,93.0508,VALID,0,VALID,23.5646,VALID,328,VALID,4.06758,
2011-06-09, 02:48:05,VALID,999.989,VALID,0,VALID,93.028,VALID,0,VALID,23.5061,VALID,320,VALID,3.62383,
2011-06-09, 02:49:05,VALID,1000.03,VALID,0,VALID,93.0051,VALID,0,VALID,23.4866,VALID,299,VALID,2.93945,
2011-06-09, 02:50:05,VALID,1000.04,VALID,0.5,VALID,92.9822,VALID,0,VALID,23.4866,VALID,265,VALID,1.80117,
2011-06-09, 02:51:05,VALID,1000.07,VALID,0.5,VALID,93.0051,VALID,0,VALID,23.4671,VALID,262,VALID,1.0168,
2011-06-09, 02:52:05,VALID,1000.12,VALID,0.5,VALID,93.028,VALID,0,VALID,23.4263,VALID,286,VALID,1.12422,
2011-06-09, 02:53:05,VALID,1000.14,VALID,0.5,VALID,93.0814,VALID,0,VALID,23.4475,VALID,251,VALID,0.830469,
2011-06-09, 02:54:05,VALID,1000.14,VALID,0.5,VALID,93.1348,VALID,0,VALID,23.428,VALID,236,VALID,0.541016,
2011-06-09, 02:55:05,VALID,1000.15,VALID,0,VALID,93.1729,VALID,0,VALID,23.4475,VALID,239,VALID,0.503125,
2011-06-09, 02:56:05,VALID,1000.17,VALID,0.5,VALID,93.2416,VALID,0,VALID,23.4671,VALID,233,VALID,0.827734,
2011-06-09, 02:57:05,VALID,1000.16,VALID,0.5,VALID,93.2874,VALID,0,VALID,23.5061,VALID,210,VALID,1.34961,
2011-06-09, 02:58:05,VALID,1000.18,VALID,0,VALID,93.3484,VALID,0,VALID,23.4866,VALID,232,VALID,2.43477,
2011-06-09, 02:59:05,VALID,1000.19,VALID,0.5,VALID,93.3713,VALID,0,VALID,23.4653,VALID,205,VALID,2.02422,
2011-06-09, 03:00:05,VALID,1000.2,VALID,0.5,VALID,93.4323,VALID,0,VALID,23.4085,VALID,278,VALID,1.43398,
2011-06-09, 03:01:05,VALID,1000.19,VALID,0,VALID,93.4476,VALID,0,VALID,23.3695,VALID,265,VALID,3.06367,
2011-06-09, 03:02:05,VALID,1000.21,VALID,0.5,VALID,93.4628,VALID,0,VALID,23.311,VALID,214,VALID,1.4957,
2011-06-09, 03:03:05,VALID,1000.19,VALID,0,VALID,93.501,VALID,0,VALID,23.2719,VALID,260,VALID,1.05586,
2011-06-09, 03:04:05,VALID,1000.19,VALID,0,VALID,93.5315,VALID,0,VALID,23.1921,VALID,222,VALID,1.85586,
2011-06-09, 03:05:05,VALID,1000.23,VALID,0,VALID,93.5468,VALID,0,VALID,23.1921,VALID,282,VALID,0.788281,
2011-06-09, 03:06:05,VALID,1000.24,VALID,0.5,VALID,93.5849,VALID,0,VALID,23.1762,VALID,229,VALID,2.48828,
2011-06-09, 03:07:05,VALID,1000.26,VALID,0,VALID,93.6002,VALID,0,VALID,23.0751,VALID,246,VALID,1.12812,
2011-06-09, 03:08:05,VALID,1000.28,VALID,0,VALID,93.5849,VALID,0,VALID,23.0573,VALID,271,VALID,1.77383,
2011-06-09, 03:09:05,VALID,1000.26,VALID,0,VALID,93.6231,VALID,0,VALID,23.0378,VALID,266,VALID,1.21875,
2011-06-09, 03:10:05,VALID,1000.31,VALID,0.5,VALID,93.6231,VALID,0,VALID,22.9988,VALID,258,VALID,0.592188,
2011-06-09, 03:11:05,VALID,1000.33,VALID,0,VALID,93.6536,VALID,0,VALID,22.9793,VALID,236,VALID,1.73281,
2011-06-09, 03:12:05,VALID,1000.33,VALID,0,VALID,93.6765,VALID,0,VALID,22.9403,VALID,257,VALID,1.9375,
2011-06-09, 03:13:05,VALID,1000.36,VALID,0.5,VALID,93.6765,VALID,0,VALID,22.919,VALID,275,VALID,1.21406,
2011-06-09, 03:14:05,VALID,1000.34,VALID,0,VALID,93.707,VALID,0,VALID,22.9208,VALID,287,VALID,1.30547,
2011-06-09, 03:15:05,VALID,1000.31,VALID,0,VALID,93.707,VALID,0,VALID,22.8818,VALID,271,VALID,1.49297,
2011-06-09, 03:16:05,VALID,1000.3,VALID,0,VALID,93.7146,VALID,0,VALID,22.8623,VALID,229,VALID,1.47969,
2011-06-09, 03:17:05,VALID,1000.31,VALID,0.5,VALID,93.768,VALID,0,VALID,22.8623,VALID,193,VALID,2.29141,
2011-06-09, 03:18:05,VALID,1000.33,VALID,0,VALID,93.7604,VALID,0,VALID,22.8232,VALID,221,VALID,1.85703,
2011-06-09, 03:19:05,VALID,1000.31,VALID,0,VALID,93.768,VALID,0,VALID,22.7842,VALID,221,VALID,1.57617,
2011-06-09, 03:20:05,VALID,1000.33,VALID,0,VALID,93.7757,VALID,0,VALID,22.763,VALID,188,VALID,2.11523,
2011-06-09, 03:21:05,VALID,1000.33,VALID,0,VALID,93.768,VALID,0,VALID,22.7842,VALID,213,VALID,2.02813,
2011-06-09, 03:22:05,VALID,1000.35,VALID,0,VALID,93.7833,VALID,0,VALID,22.7452,VALID,202,VALID,1.62969,
2011-06-09, 03:23:05,VALID,1000.34,VALID,0.5,VALID,93.7909,VALID,0,VALID,22.7257,VALID,199,VALID,1.66328,
2011-06-09, 03:24:05,VALID,1000.38,VALID,0,VALID,93.8062,VALID,0,VALID,22.7257,VALID,211,VALID,1.51484,
2011-06-09, 03:25:05,VALID,1000.4,VALID,0,VALID,93.7985,VALID,0,VALID,22.7452,VALID,221,VALID,2.00625,
2011-06-09, 03:26:05,VALID,1000.43,VALID,0,VALID,93.7985,VALID,0,VALID,22.7452,VALID,231,VALID,1.57227,
2011-06-09, 03:27:05,VALID,1000.46,VALID,0,VALID,93.8291,VALID,0,VALID,22.7257,VALID,237,VALID,1.08281,
2011-06-09, 03:28:05,VALID,1000.47,VALID,0.5,VALID,93.8214,VALID,0,VALID,22.7257,VALID,219,VALID,0.832422,
2011-06-09, 03:29:05,VALID,1000.51,VALID,0,VALID,93.8291,VALID,0,VALID,22.7257,VALID,278,VALID,1.00156,
2011-06-09, 03:30:05,VALID,1000.51,VALID,0,VALID,93.8214,VALID,0,VALID,22.7257,VALID,229,VALID,1.85273,
2011-06-09, 03:31:05,VALID,1000.54,VALID,0,VALID,93.8443,VALID,0,VALID,22.7045,VALID,194,VALID,1.82031,
2011-06-09, 03:32:05,VALID,1000.56,VALID,0.5,VALID,93.852,VALID,0,VALID,22.7452,VALID,225,VALID,1.21523,
2011-06-09, 03:33:05,VALID,1000.58,VALID,0,VALID,93.8672,VALID,0,VALID,22.7452,VALID,211,VALID,1.78477,
2011-06-09, 03:34:05,VALID,1000.62,VALID,0,VALID,93.8596,VALID,0,VALID,22.7452,VALID,244,VALID,1.27227,
2011-06-09, 03:35:05,VALID,1000.64,VALID,0,VALID,93.8672,VALID,0,VALID,22.7647,VALID,210,VALID,0.981641,
2011-06-09, 03:36:05,VALID,1000.65,VALID,0.5,VALID,93.8748,VALID,0,VALID,22.7647,VALID,207,VALID,0.632422,
2011-06-09, 03:37:05,VALID,1000.7,VALID,0,VALID,93.8977,VALID,0,VALID,22.7647,VALID,275,VALID,0.35,
2011-06-09, 03:38:05,VALID,1000.69,VALID,0.5,VALID,93.8901,VALID,0,VALID,22.7842,VALID,264,VALID,0.767578,
2011-06-09, 03:39:05,VALID,1000.7,VALID,0,VALID,93.8977,VALID,0,VALID,22.7842,VALID,197,VALID,0.703906,
2011-06-09, 03:40:05,VALID,1000.69,VALID,0,VALID,93.8901,VALID,0,VALID,22.7842,VALID,272,VALID,0.812109,
2011-06-09, 03:41:05,VALID,1000.69,VALID,0,VALID,93.913,VALID,0,VALID,22.8037,VALID,249,VALID,0.741797,
2011-06-09, 03:42:05,VALID,1000.66,VALID,0,VALID,93.9283,VALID,0,VALID,22.7842,VALID,238,VALID,0.0839844,
2011-06-09, 03:43:05,VALID,1000.67,VALID,0,VALID,93.9206,VALID,0,VALID,22.7842,VALID,194,VALID,0.908984,
2011-06-09, 03:44:05,VALID,1000.66,VALID,0,VALID,93.9206,VALID,0,VALID,22.7825,VALID,207,VALID,0.446875,
2011-06-09, 03:45:05,VALID,1000.66,VALID,0.5,VALID,93.9283,VALID,0,VALID,22.7842,VALID,207,VALID,0.378516,
2011-06-09, 03:46:05,VALID,1000.63,VALID,0,VALID,93.9359,VALID,0,VALID,22.7842,VALID,279,VALID,0.167578,
2011-06-09, 03:47:05,VALID,1000.59,VALID,0,VALID,93.9359,VALID,0,VALID,22.7842,VALID,247,VALID,0.756641,